Other Public Products
Issued by NWS Grand Forks, ND

Home | Current Version | Previous Version | Graphics & Text | Print | Product List | Glossary On
Versions: 1 2 3 4 5 6 7 8 9 10 11 12 13 14 15 16 17 18 19 20 21 22 23 24 25 26 27 28 29 30 31 32 33 34 35 36 37 38 39 40 41 42 43 44 45 46 47 48 49 50
725
FPUS83 KFGF 221810
OPUFGF
PRAIRIE TO PINES WEATHER ROUNDUP
NATIONAL WEATHER SERVICE EASTERN NORTH DAKOTA/GRAND FORKS ND
100 PM CDT SUN OCT 22 2017

 **SATELLITE DATA USED TO AUGMENT SKY COVER AT AUTOMATED STATIONS**
 *****  WEATHER ACROSS EASTERN NORTH DAKOTA  *****

CITY           SKY/WX    TMP DP  RH WIND       PRES   REMARKS
GRAND FORKS    FAIR      62  32  32 SW22G30   29.77F
6HR MIN TEMP:  42; 6HR MAX TEMP:  62;

GRAND FORKS AF FAIR      61  28  29 SW16      29.77F
GRAND CITY NWS NOT AVBL
BUXTON         NOT AVBL
DEVILS LAKE    FAIR      56  32  40 SW16      29.74F
6HR MIN TEMP:  39; 6HR MAX TEMP:  56;

FARGO          FAIR      61  32  33 SW18      29.85F
6HR MIN TEMP:  38; 6HR MAX TEMP:  61;

WAHPETON ARPT  NOT AVBL
$$

 *****  WEATHER ACROSS CENTRAL AND WESTERN NORTH DAKOTA  *****

CITY           SKY/WX    TMP DP  RH WIND       PRES   REMARKS
JAMESTOWN      FAIR      60  23  24 SW21      29.79F
6HR MIN TEMP:  36; 6HR MAX TEMP:  61;

BISMARCK       CLOUDY    59  27  29 SW20G26   29.77F
6HR MIN TEMP:  30; 6HR MAX TEMP:  59;

MINOT          CLOUDY    52  27  38 S9        29.68F
6HR MIN TEMP:  38; 6HR MAX TEMP:  52;

MINOT AFB      FAIR      51  27  39 SW17      29.65F
6HR MIN TEMP:  34; 6HR MAX TEMP:  53;

GARRISON         N/A     52  26  36 SW13      29.71F
6HR MIN TEMP:  32; 6HR MAX TEMP:  52;

WILLISTON      CLOUDY    48  29  47 SW12      29.66F
6HR MIN TEMP:  29; 6HR MAX TEMP:  48; 6HR PCP: TRACE;

DICKINSON      CLOUDY    59  29  31 W22G35    29.71F
6HR MIN TEMP:  31; 6HR MAX TEMP:  61; 6HR PCP: TRACE;

HETTINGER      CLOUDY    57  22  25 SW16      29.81F
6HR MIN TEMP:  26; 6HR MAX TEMP:  57;

$$

 *****  OTHER OBSERVATIONS NORTHEAST NORTH DAKOTA  *****

CITY           SKY/WX    TMP DP  RH WIND       PRES   REMARKS
WALHALLA       FAIR     N/A N/A N/A SW15G23   29.70F
LANGDON        NOT AVBL
CAVALIER       FAIR      59  34  38 SW14      29.72F
GRAFTON        NOT AVBL
CANDO          FAIR      55  28  35 SW14      29.73F
FORT TOTTEN      N/A     57  27  31 SW9       29.95S
ROLLA          FAIR      48  30  49 SW15      29.69F
RUGBY          NOT AVBL
 ***** THE ABOVE OBSERVATIONS ARE NON NWS ARE NOT QUALITY
        CONTROLLED AND MAY MIS-REPORT RAIN FOR SNOW...
$$

 *****  OTHER OBSERVATIONS SOUTHEAST NORTH DAKOTA *****

CITY           SKY/WX    TMP DP  RH WIND       PRES   REMARKS
COOPERSTOWN    FAIR      59  28  31 SW21G36   29.79F
VALLEY CITY    NOT AVBL
OAKES          NOT AVBL
GWINNER        CLEAR     59  30  33 SW18G26   29.87F
SHEYENNE NWR     N/A     62  31  31 SW16      29.95S
BUFFALO        NOT AVBL
WYNDMERE       NOT AVBL
 ***** THE ABOVE OBSERVATIONS ARE NON NWS ARE NOT QUALITY
       CONTROLLED AND MAY MIS-REPORT RAIN FOR SNOW...
$$

  *****  WEATHER ACROSS NORTHERN MINNESOTA  *****

CITY           SKY/WX    TMP DP  RH WIND       PRES   REMARKS
FLAG ISLAND    FAIR      52  34  50 SW21G28   29.69S
WARROAD        FAIR      54  36  50 W17G26    29.73F
ROSEAU         FAIR      55  36  47 SW18G26   29.74F
HALLOCK        FAIR      59  30  33 SW18      29.74F
THF RVR FALLS  FAIR      58  30  34 SW18G26   29.79F
6HR MIN TEMP:  40; 6HR MAX TEMP:  58;

HALSTAD        NOT AVBL
FOSSTON        FAIR      57  28  33 SW16G23   29.84F
BAUDETTE       FAIR      55  33  43 W15G35    29.75S
6HR MIN TEMP:  44; 6HR MAX TEMP:  55;

WASKISH        FAIR      54  39  58 SW17G26   29.81F
CROOKSTON      FAIR      61  30  31 SW17G23   29.80F
$$
  *****  WEATHER ACROSS CENTRAL AND WEST MINNESOTA  *****

CITY           SKY/WX    TMP DP  RH WIND       PRES   REMARKS
BEMIDJI        FAIR      55  32  41 W17G25    29.85F
6HR MIN TEMP:  41; 6HR MAX TEMP:  55;

PARK RAPIDS    FAIR      58  32  37 W21G30    29.88F
6HR MIN TEMP:  39; 6HR MAX TEMP:  58;

WADENA         FAIR      55  36  47 SW13      29.91F
DETROIT LAKES  FAIR      55  32  41 SW13G21   29.89F
MOORHEAD       FAIR      61  30  31 SW13G18   29.87F
FERGUS FALLS   FAIR      59  36  41 SW14      29.91F
ELBOW LAKE     FAIR      59  34  39 SW12G17   29.93F
6HR MIN TEMP:  36; 6HR MAX TEMP:  59;

MORRIS MN      FAIR      63  34  34 W13G22    29.93F
STAPLES        FAIR      57  30  35 SW12G17   29.92F
WHEATON        FAIR      63  28  27 SW16      29.93F
$$
  *****  WEATHER ELSEWHERE ACROSS MINNESOTA  *****

CITY           SKY/WX    TMP DP  RH WIND       PRES   REMARKS
DULUTH         FAIR      54  38  54 W14G24    29.88F
6HR MIN TEMP:  45; 6HR MAX TEMP:  54;

INTRNTL FALLS  FAIR      56  34  43 W18G31    29.77S
6HR MIN TEMP:  42; 6HR MAX TEMP:  56;

ELY            FAIR      52  36  54 W15       29.82F
CLOQUET        FAIR      55  32  41 W15G21    29.89S
BRAINERD       FAIR      59  30  33 W16G26    29.93S
HIBBING        FAIR      54  32  43 W14G22    29.86F
6HR MIN TEMP:  43; 6HR MAX TEMP:  54;

ALEXANDRIA     FAIR      57  36  45 SW13      29.96F
6HR MIN TEMP:  40; 6HR MAX TEMP:  58;

SAINT CLOUD    FAIR      59  36  42 W15       29.96F
6HR MIN TEMP:  42; 6HR MAX TEMP:  59;

MINNEAPOLIS    FAIR      60  40  47 W13       29.98F
6HR MIN TEMP:  48; 6HR MAX TEMP:  60;

$$

  *****  WEATHER ACROSS SOUTH DAKOTA  *****

CITY           SKY/WX    TMP DP  RH WIND       PRES   REMARKS
SIOUX FALLS    FAIR      62  35  36 SW12G18   30.02F
6HR MIN TEMP:  38; 6HR MAX TEMP:  62;

BROOKINGS      FAIR      61  30  31 SW16      29.98F
WATERTOWN      FAIR      60  29  30 SW21G28   29.94F
6HR MIN TEMP:  32; 6HR MAX TEMP:  60;

HURON          FAIR      63  32  31 S22G29    29.94F
6HR MIN TEMP:  36; 6HR MAX TEMP:  64;

SISSETON         N/A     63  29  27 SW22      29.91F
ABERDEEN       FAIR      64  31  28 SW20G29   29.90F
6HR MIN TEMP:  29; 6HR MAX TEMP:  64;

MITCHELL       FAIR      64  32  30 S18       29.97F
PIERRE         FAIR      57  31  37 SW8       29.89F
6HR MIN TEMP:  34; 6HR MAX TEMP:  57;

MOBRIDGE       FAIR      63  30  28 S16G25    29.83F
RAPID CITY     FAIR      64  23  21 SE10      29.90F
6HR MIN TEMP:  25; 6HR MAX TEMP:  64;

$$

  *****  SOME WEATHER IN NEARBY STATES *****

CITY           SKY/WX    TMP DP  RH WIND       PRES   REMARKS
GLASGOW MT     CLOUDY    55  41  59 SW9       29.60F
6HR MIN TEMP:  34; 6HR MAX TEMP:  55; 6HR PCP: TRACE;

GREAT FALLS MT FAIR      59  34  39 SW33G49   29.75R
6HR MIN TEMP:  50; 6HR MAX TEMP:  60;

CHEYENNE WY    FAIR      58  24  27 W31G38    30.15F
6HR MIN TEMP:  43; 6HR MAX TEMP:  58;

SCOTTSBLUFF NE FAIR      66  28  24 W26G35    30.06F
6HR MIN TEMP:  31; 6HR MAX TEMP:  66;

OMAHA NE       FAIR      65  32  29 SW9       30.10F
6HR MIN TEMP:  42; 6HR MAX TEMP:  66;

DES MOINES IA  FAIR      62  41  46 NW9       30.07F
6HR MIN TEMP:  50; 6HR MAX TEMP:  62;

DAVENPORT IA   CLOUDY    52  48  86 N9        30.04F
6HR MIN TEMP:  51; 6HR MAX TEMP:  54; 6HR PCP:  0.07;

CHICAGO IL     CLOUDY    68  61  78 S15       29.91F
6HR MIN TEMP:  65; 6HR MAX TEMP:  68; 6HR PCP:  0.05;

EAU CLAIRE WI  FAIR      53  42  66 W8        29.98F
6HR MIN TEMP:  49; 6HR MAX TEMP:  53;

LA CROSSE WI   CLOUDY    55  45  68 NW8       30.00F
6HR MIN TEMP:  52; 6HR MAX TEMP:  55; 6HR PCP: TRACE;

$$

  *****  SOME NATIONAL WEATHER *****

CITY           SKY/WX    TMP DP  RH WIND       PRES   REMARKS
LA GUARDIA NY  PTSUNNY   74  42  31 S8        30.37F



USA.gov is the U.S. government's official web portal to all federal, state and local government web resources and services.